Location: Chervonnoye
(48.6000°N, 34.4000°E)
Time: 08:14:49
(UTC+00:00)

Nadezhda 1 Rocket - Pass Details

Date: 20 April 2021
Orbit: 940 x 1006 km, 83.0° (Epoch: 13 May)

Event Time Altitude Azimuth Distance (km) Brightness Sun altitude
Exits shadow 23:15:51 35° 270° (W) 1,572 4.8 -26.0°
Maximum altitude 23:16:50 37° 289° (WNW) 1,523 4.9 -25.9°
Drops below altitude 10° 23:22:42 10° 356° (N) 2,779 7.1 -25.5°
Sets 23:25:28 0° 5° (N) 3,726 8.1 -25.3°
